Time,TemperatureF,DewpointF,PressureIn,WindDirection,WindDirectionDegrees,WindSpeedMPH,WindSpeedGustMPH,Humidity,HourlyPrecipIn,Conditions,Clouds,dailyrainin,SoftwareType,DateUTC
2013-05-30 00:00:00,78.0,63.0,30.06,SW,215,3.0,10.0,61,-99.99,,,-99.99,,2013-05-30 04:00:00,
2013-05-30 00:23:00,78.0,63.0,30.06,SW,215,3.0,10.0,61,-99.99,,,-99.99,,2013-05-30 04:23:00,
2013-05-30 00:33:00,78.0,63.0,30.06,SW,215,3.0,10.0,61,-99.99,,,-99.99,,2013-05-30 04:33:00,
2013-05-30 00:42:00,78.0,63.0,30.06,SW,215,3.0,10.0,61,-99.99,,,-99.99,,2013-05-30 04:42:00,
2013-05-30 00:53:00,78.0,63.0,30.06,SW,215,3.0,10.0,61,-99.99,,,-99.99,,2013-05-30 04:53:00,
2013-05-30 01:00:00,74.0,64.0,30.06,SSE,161,0.0,7.0,71,-99.99,,,-99.99,,2013-05-30 05:00:00,
2013-05-30 01:32:00,74.0,64.0,30.06,SSE,161,0.0,7.0,71,-99.99,,,-99.99,,2013-05-30 05:32:00,
2013-05-30 01:43:00,74.0,64.0,30.06,SSE,161,0.0,7.0,71,-99.99,,,-99.99,,2013-05-30 05:43:00,
2013-05-30 01:52:00,74.0,64.0,30.06,SSE,161,0.0,7.0,71,-99.99,,,-99.99,,2013-05-30 05:52:00,
2013-05-30 02:00:00,74.0,64.0,30.06,SSW,207,0.0,5.0,72,-99.99,,,-99.99,,2013-05-30 06:00:00,
2013-05-30 02:22:00,74.0,64.0,30.06,SSW,207,0.0,5.0,72,-99.99,,,-99.99,,2013-05-30 06:22:00,
2013-05-30 02:32:00,74.0,64.0,30.06,SSW,207,0.0,5.0,72,-99.99,,,-99.99,,2013-05-30 06:32:00,
2013-05-30 02:42:00,74.0,64.0,30.06,SSW,207,0.0,5.0,72,-99.99,,,-99.99,,2013-05-30 06:42:00,
2013-05-30 02:52:00,74.0,64.0,30.06,SSW,207,0.0,5.0,72,-99.99,,,-99.99,,2013-05-30 06:52:00,
2013-05-30 03:00:00,71.0,64.0,30.06,SE,141,0.0,5.0,79,-99.99,,,-99.99,,2013-05-30 07:00:00,
2013-05-30 03:22:00,71.0,64.0,30.06,SE,141,0.0,5.0,79,-99.99,,,-99.99,,2013-05-30 07:22:00,
2013-05-30 03:32:00,71.0,64.0,30.06,SE,141,0.0,5.0,79,-99.99,,,-99.99,,2013-05-30 07:32:00,
2013-05-30 03:42:00,71.0,64.0,30.06,SE,141,0.0,5.0,79,-99.99,,,-99.99,,2013-05-30 07:42:00,
2013-05-30 03:52:00,71.0,64.0,30.06,SE,141,0.0,5.0,79,-99.99,,,-99.99,,2013-05-30 07:52:00,
2013-05-30 04:00:00,68.0,64.0,30.06,North,10,0.0,0.0,87,-99.99,,,-99.99,,2013-05-30 08:00:00,
2013-05-30 04:22:00,68.0,64.0,30.06,North,10,0.0,0.0,87,-99.99,,,-99.99,,2013-05-30 08:22:00,
2013-05-30 04:32:00,68.0,64.0,30.06,North,10,0.0,0.0,87,-99.99,,,-99.99,,2013-05-30 08:32:00,
2013-05-30 04:42:00,68.0,64.0,30.06,North,10,0.0,0.0,87,-99.99,,,-99.99,,2013-05-30 08:42:00,
2013-05-30 04:53:00,68.0,64.0,30.06,North,10,0.0,0.0,87,-99.99,,,-99.99,,2013-05-30 08:53:00,
2013-05-30 05:00:00,67.0,64.0,30.06,ESE,121,0.0,0.0,90,-99.99,,,-99.99,,2013-05-30 09:00:00,
2013-05-30 05:22:00,67.0,64.0,30.06,ESE,121,0.0,0.0,90,-99.99,,,-99.99,,2013-05-30 09:22:00,
2013-05-30 05:33:00,67.0,64.0,30.06,ESE,121,0.0,0.0,90,-99.99,,,-99.99,,2013-05-30 09:33:00,
2013-05-30 05:43:00,67.0,64.0,30.06,ESE,121,0.0,0.0,90,-99.99,,,-99.99,,2013-05-30 09:43:00,
2013-05-30 05:53:00,67.0,64.0,30.06,ESE,121,0.0,0.0,90,-99.99,,,-99.99,,2013-05-30 09:53:00,
2013-05-30 06:00:00,66.0,63.0,30.09,South,174,0.0,0.0,91,-99.99,,,-99.99,,2013-05-30 10:00:00,
2013-05-30 06:33:00,66.0,63.0,30.09,South,174,0.0,0.0,91,-99.99,,,-99.99,,2013-05-30 10:33:00,
2013-05-30 06:42:00,66.0,63.0,30.09,South,174,0.0,0.0,91,-99.99,,,-99.99,,2013-05-30 10:42:00,
2013-05-30 06:52:00,66.0,63.0,30.09,South,174,0.0,0.0,91,-99.99,,,-99.99,,2013-05-30 10:52:00,
2013-05-30 07:00:00,71.0,66.0,30.09,South,169,0.0,2.0,84,-99.99,,,-99.99,,2013-05-30 11:00:00,
2013-05-30 07:22:00,71.0,66.0,30.09,South,169,0.0,2.0,84,-99.99,,,-99.99,,2013-05-30 11:22:00,
2013-05-30 07:32:00,71.0,66.0,30.09,South,169,0.0,2.0,84,-99.99,,,-99.99,,2013-05-30 11:32:00,
2013-05-30 07:42:00,71.0,66.0,30.09,South,169,0.0,2.0,84,-99.99,,,-99.99,,2013-05-30 11:42:00,
2013-05-30 07:52:00,71.0,66.0,30.09,South,169,0.0,2.0,84,-99.99,,,-99.99,,2013-05-30 11:52:00,
2013-05-30 08:00:00,77.0,67.0,30.12,SSW,205,5.0,6.0,70,-99.99,,,-99.99,,2013-05-30 12:00:00,
2013-05-30 08:32:00,77.0,67.0,30.12,SSW,205,5.0,6.0,70,-99.99,,,-99.99,,2013-05-30 12:32:00,
2013-05-30 08:42:00,77.0,67.0,30.12,SSW,205,5.0,6.0,70,-99.99,,,-99.99,,2013-05-30 12:42:00,
2013-05-30 08:52:00,77.0,67.0,30.12,SSW,205,5.0,6.0,70,-99.99,,,-99.99,,2013-05-30 12:52:00,
2013-05-30 09:00:00,81.0,64.0,30.12,WSW,245,3.0,12.0,57,-99.99,,,-99.99,,2013-05-30 13:00:00,
2013-05-30 09:22:00,81.0,64.0,30.12,WSW,245,3.0,12.0,57,-99.99,,,-99.99,,2013-05-30 13:22:00,
2013-05-30 09:32:00,81.0,64.0,30.12,WSW,245,3.0,12.0,57,-99.99,,,-99.99,,2013-05-30 13:32:00,
2013-05-30 09:42:00,81.0,64.0,30.12,WSW,245,3.0,12.0,57,-99.99,,,-99.99,,2013-05-30 13:42:00,
2013-05-30 09:52:00,81.0,64.0,30.12,WSW,245,3.0,12.0,57,-99.99,,,-99.99,,2013-05-30 13:52:00,
2013-05-30 10:00:00,84.0,65.0,30.12,SW,214,0.0,7.0,52,-99.99,,,-99.99,,2013-05-30 14:00:00,
2013-05-30 10:22:00,84.0,65.0,30.12,SW,214,0.0,7.0,52,-99.99,,,-99.99,,2013-05-30 14:22:00,
2013-05-30 10:32:00,84.0,65.0,30.12,SW,214,0.0,7.0,52,-99.99,,,-99.99,,2013-05-30 14:32:00,
2013-05-30 10:42:00,84.0,65.0,30.12,SW,214,0.0,7.0,52,-99.99,,,-99.99,,2013-05-30 14:42:00,
2013-05-30 10:52:00,84.0,65.0,30.12,SW,214,0.0,7.0,52,-99.99,,,-99.99,,2013-05-30 14:52:00,
2013-05-30 11:00:00,86.0,62.0,30.12,NW,315,3.0,7.0,44,-99.99,,,-99.99,,2013-05-30 15:00:00,
2013-05-30 11:22:00,86.0,62.0,30.12,NW,315,3.0,7.0,44,-99.99,,,-99.99,,2013-05-30 15:22:00,
2013-05-30 11:33:00,86.0,62.0,30.12,NW,315,3.0,7.0,44,-99.99,,,-99.99,,2013-05-30 15:33:00,
2013-05-30 11:43:00,86.0,62.0,30.12,NW,315,3.0,7.0,44,-99.99,,,-99.99,,2013-05-30 15:43:00,
2013-05-30 11:53:00,86.0,62.0,30.12,NW,315,3.0,7.0,44,-99.99,,,-99.99,,2013-05-30 15:53:00,
2013-05-30 12:00:00,89.0,62.0,30.12,SSW,210,0.0,10.0,41,-99.99,,,-99.99,,2013-05-30 16:00:00,
2013-05-30 12:23:00,89.0,62.0,30.12,SSW,210,0.0,10.0,41,-99.99,,,-99.99,,2013-05-30 16:23:00,
2013-05-30 12:33:00,89.0,62.0,30.12,SSW,210,0.0,10.0,41,-99.99,,,-99.99,,2013-05-30 16:33:00,
2013-05-30 12:42:00,89.0,62.0,30.12,SSW,210,0.0,10.0,41,-99.99,,,-99.99,,2013-05-30 16:42:00,
2013-05-30 12:53:00,89.0,62.0,30.12,SSW,210,0.0,10.0,41,-99.99,,,-99.99,,2013-05-30 16:53:00,
2013-05-30 13:00:00,89.0,60.0,30.12,NW,321,6.0,12.0,38,-99.99,,,-99.99,,2013-05-30 17:00:00,
2013-05-30 13:22:00,89.0,60.0,30.12,NW,321,6.0,12.0,38,-99.99,,,-99.99,,2013-05-30 17:22:00,
2013-05-30 13:32:00,89.0,60.0,30.12,NW,321,6.0,12.0,38,-99.99,,,-99.99,,2013-05-30 17:32:00,
2013-05-30 13:42:00,89.0,60.0,30.12,NW,321,6.0,12.0,38,-99.99,,,-99.99,,2013-05-30 17:42:00,
2013-05-30 13:52:00,89.0,60.0,30.12,NW,321,6.0,12.0,38,-99.99,,,-99.99,,2013-05-30 17:52:00,
2013-05-30 14:00:00,91.0,64.0,30.09,WSW,237,6.0,12.0,42,-99.99,,,-99.99,,2013-05-30 18:00:00,
2013-05-30 14:32:00,91.0,64.0,30.09,WSW,237,6.0,12.0,42,-99.99,,,-99.99,,2013-05-30 18:32:00,
2013-05-30 14:43:00,91.0,64.0,30.09,WSW,237,6.0,12.0,42,-99.99,,,-99.99,,2013-05-30 18:43:00,
2013-05-30 14:52:00,91.0,64.0,30.09,WSW,237,6.0,12.0,42,-99.99,,,-99.99,,2013-05-30 18:52:00,
2013-05-30 15:00:00,91.0,55.0,30.09,ESE,111,0.0,13.0,29,-99.99,,,-99.99,,2013-05-30 19:00:00,
2013-05-30 15:23:00,91.0,55.0,30.09,ESE,111,0.0,13.0,29,-99.99,,,-99.99,,2013-05-30 19:23:00,
2013-05-30 15:32:00,91.0,55.0,30.09,ESE,111,0.0,13.0,29,-99.99,,,-99.99,,2013-05-30 19:32:00,
2013-05-30 15:42:00,91.0,55.0,30.09,ESE,111,0.0,13.0,29,-99.99,,,-99.99,,2013-05-30 19:42:00,
2013-05-30 15:53:00,91.0,55.0,30.09,ESE,111,0.0,13.0,29,-99.99,,,-99.99,,2013-05-30 19:53:00,
2013-05-30 16:00:00,91.0,55.0,30.06,WNW,290,2.0,11.0,30,-99.99,,,-99.99,,2013-05-30 20:00:00,
2013-05-30 16:23:00,91.0,55.0,30.06,WNW,290,2.0,11.0,30,-99.99,,,-99.99,,2013-05-30 20:23:00,
2013-05-30 16:33:00,91.0,55.0,30.06,WNW,290,2.0,11.0,30,-99.99,,,-99.99,,2013-05-30 20:33:00,
2013-05-30 16:42:00,91.0,55.0,30.06,WNW,290,2.0,11.0,30,-99.99,,,-99.99,,2013-05-30 20:42:00,
2013-05-30 16:52:00,91.0,55.0,30.06,WNW,290,2.0,11.0,30,-99.99,,,-99.99,,2013-05-30 20:52:00,
2013-05-30 17:00:00,91.0,58.0,30.06,West,271,4.0,12.0,34,-99.99,,,-99.99,,2013-05-30 21:00:00,
2013-05-30 17:33:00,91.0,58.0,30.06,West,271,4.0,12.0,34,-99.99,,,-99.99,,2013-05-30 21:33:00,
2013-05-30 17:43:00,91.0,58.0,30.06,West,271,4.0,12.0,34,-99.99,,,-99.99,,2013-05-30 21:43:00,
2013-05-30 17:53:00,91.0,58.0,30.06,West,271,4.0,12.0,34,-99.99,,,-99.99,,2013-05-30 21:53:00,
2013-05-30 18:00:00,91.0,60.0,30.06,NW,320,6.0,12.0,35,-99.99,,,-99.99,,2013-05-30 22:00:00,
2013-05-30 18:23:00,91.0,60.0,30.06,NW,320,6.0,12.0,35,-99.99,,,-99.99,,2013-05-30 22:23:00,
2013-05-30 18:33:00,91.0,60.0,30.06,NW,320,6.0,12.0,35,-99.99,,,-99.99,,2013-05-30 22:33:00,
2013-05-30 18:42:00,91.0,60.0,30.06,NW,320,6.0,12.0,35,-99.99,,,-99.99,,2013-05-30 22:42:00,
2013-05-30 18:52:00,91.0,60.0,30.06,NW,320,6.0,12.0,35,-99.99,,,-99.99,,2013-05-30 22:52:00,
2013-05-30 19:00:00,90.0,58.0,30.06,West,270,0.0,10.0,35,-99.99,,,-99.99,,2013-05-30 23:00:00,
2013-05-30 19:22:00,90.0,58.0,30.06,West,270,0.0,10.0,35,-99.99,,,-99.99,,2013-05-30 23:22:00,
2013-05-30 19:32:00,90.0,58.0,30.06,West,270,0.0,10.0,35,-99.99,,,-99.99,,2013-05-30 23:32:00,
2013-05-30 19:42:00,90.0,58.0,30.06,West,270,0.0,10.0,35,-99.99,,,-99.99,,2013-05-30 23:42:00,
2013-05-30 19:52:00,90.0,58.0,30.06,West,270,0.0,10.0,35,-99.99,,,-99.99,,2013-05-30 23:52:00,
2013-05-30 20:00:00,86.0,60.0,30.06,WSW,242,2.0,9.0,41,-99.99,,,-99.99,,2013-05-31 00:00:00,
2013-05-30 20:32:00,86.0,60.0,30.06,WSW,242,2.0,9.0,41,-99.99,,,-99.99,,2013-05-31 00:32:00,
2013-05-30 20:42:00,86.0,60.0,30.06,WSW,242,2.0,9.0,41,-99.99,,,-99.99,,2013-05-31 00:42:00,
2013-05-30 20:52:00,86.0,60.0,30.06,WSW,242,2.0,9.0,41,-99.99,,,-99.99,,2013-05-31 00:52:00,
2013-05-30 21:00:00,81.0,61.0,30.06,SSW,207,0.0,7.0,51,-99.99,,,-99.99,,2013-05-31 01:00:00,
2013-05-30 21:21:00,81.0,61.0,30.06,SSW,207,0.0,7.0,51,-99.99,,,-99.99,,2013-05-31 01:21:00,
2013-05-30 21:32:00,81.0,61.0,30.06,SSW,207,0.0,7.0,51,-99.99,,,-99.99,,2013-05-31 01:32:00,
2013-05-30 21:42:00,81.0,61.0,30.06,SSW,207,0.0,7.0,51,-99.99,,,-99.99,,2013-05-31 01:42:00,
2013-05-30 21:52:00,81.0,61.0,30.06,SSW,207,0.0,7.0,51,-99.99,,,-99.99,,2013-05-31 01:52:00,
2013-05-30 22:00:00,78.0,63.0,30.06,SSE,155,0.0,0.0,60,-99.99,,,-99.99,,2013-05-31 02:00:00,
2013-05-30 22:22:00,78.0,63.0,30.06,SSE,155,0.0,0.0,60,-99.99,,,-99.99,,2013-05-31 02:22:00,
2013-05-30 22:32:00,78.0,63.0,30.06,SSE,155,0.0,0.0,60,-99.99,,,-99.99,,2013-05-31 02:32:00,
2013-05-30 22:42:00,78.0,63.0,30.06,SSE,155,0.0,0.0,60,-99.99,,,-99.99,,2013-05-31 02:42:00,
2013-05-30 22:52:00,78.0,63.0,30.06,SSE,155,0.0,0.0,60,-99.99,,,-99.99,,2013-05-31 02:52:00,
2013-05-30 23:00:00,74.0,63.0,30.06,SE,137,0.0,0.0,70,-99.99,,,-99.99,,2013-05-31 03:00:00,
2013-05-30 23:33:00,74.0,63.0,30.06,SE,137,0.0,0.0,70,-99.99,,,-99.99,,2013-05-31 03:33:00,
2013-05-30 23:43:00,74.0,63.0,30.06,SE,137,0.0,0.0,70,-99.99,,,-99.99,,2013-05-31 03:43:00,
2013-05-30 23:53:00,74.0,63.0,30.06,SE,137,0.0,0.0,70,-99.99,,,-99.99,,2013-05-31 03:53:00,